Location: ?????????
(41.2393°N, 22.9479°E)
Time: 04:43:42
(UTC+00:00)

Cosmos 2026 Rocket - Pass Details

Date: 17 November 2025
Orbit: 938 x 1000 km, 82.9° (Epoch: 09 December)

Event Time Altitude Azimuth Distance (km) Brightness Sun altitude
Rises 17:52:22 0° 348° (NNW) 3,613 7.1 -30.9°
Reaches altitude 10° 17:54:52 10° 345° (NNW) 2,669 6.4 -31.4°
Maximum altitude 18:00:50 58° 268° (W) 1,097 4.4 -32.5°
Drops below altitude 10° 18:06:49 10° 190° (S) 2,687 6.3 -33.7°
Sets 18:09:22 0° 187° (S) 3,638 7.0 -34.1°
